Regional Weather Roundup
Issued by NWS

Home | Current Version | Previous Version | Text Only | Print | Product List | Glossary On
Versions: 1 2 3 4 5 6 7 8 9 10 11 12 13 14 15 16 17 18 19 20 21 22 23 24 25 26 27 28 29 30 31 32 33 34 35 36 37 38 39 40 41 42 43 44 45 46 47 48 49 50
000
ASUS43 KDTX 091301
RWRMI
MICHIGAN HOURLY REGIONAL WEATHER ROUNDUP
NATIONAL WEATHER SERVICE DETROIT/PONTIAC MI
900 AM EDT WED JUL 09 2014

NOTE: "FAIR" INDICATES FEW OR NO CLOUDS BELOW 12,000 FEET WITH NO
SIGNIFICANT WEATHER AND/OR OBSTRUCTION TO VISIBILITY.

MIZ047>049-052>055-059>063-066>070-074>076-081>083-091400-
SOUTHEAST LOWER MICHIGAN

CITY           SKY/WX    TMP DP  RH WIND       PRES   REMARKS
ADRIAN         SUNNY     67  59  75 NW8       29.89R
ALMA           CLOUDY    59  53  78 NW7       29.89R
ANN ARBOR      PTSUNNY   66  60  81 NW5       29.87R
BAD AXE        SUNNY     60  52  75 NW8       29.87R
CARO           MOSUNNY   62  56  82 NW7       29.87R
DETROIT CITY   CLOUDY    68  58  70 N5        29.86R
DETROIT        PTSUNNY   68  61  78 W6        29.86R
FLINT          CLOUDY    63  51  65 VRB7      29.87R
GROSSE ILE     PTSUNNY   68  63  83 NW7       29.85R
HILLSDALE      SUNNY     66  62  84 W9        29.90R
HOWELL         CLOUDY    61  58  88 NW5       29.88R

CITY           SKY/WX    TMP DP  RH WIND       PRES   REMARKS
JACKSON        MOSUNNY   64  59  83 W8        29.88R
LAMBERTVILLE   SUNNY     68  59  73 W7        29.88R
LANSING        CLOUDY    62  57  83 N6        29.88R
LAPEER         CLOUDY    59  49  69 NW7       29.87R
MASON          CLOUDY    63  59  89 W3        29.88R
MONROE         SUNNY     66  61  82 W7        29.85S
MT. CLEMENS    PTSUNNY   64  59  84 NW3       29.85R
PONTIAC        PTSUNNY   62  55  77 W8        29.86R
PORT HOPE        N/A     60  52  74 NW8       29.84R
PORT HURON     CLOUDY    61  55  82 NW6       29.86S
TRI CITIES     CLOUDY    60  50  69 NW9       29.88R
TROY           PTSUNNY   64  58  80 NW3       29.87R
SAGINAW HB     CLOUDY    59  52  77 NW6       29.87R
$$
MIZ043>046-050>051-056>058-064>065-071>073-077>080-091400-
SOUTHWEST LOWER MICHIGAN

CITY           SKY/WX    TMP DP  RH WIND       PRES   REMARKS
BATTLE CREEK   PTSUNNY   63  59  87 NW8       29.90R
BENTON HARBOR  MOSUNNY   65  59  81 NW3       29.90R
COLDWATER      SUNNY     67  62  81 W7        29.90R
FREMONT        CLOUDY    59  53  81 N6        29.89S
HOLLAND        PTSUNNY   66  59  78 NW5       29.90R
GRAND RAPIDS   MOSUNNY   66  58  75 NW6       29.89R
IONIA          PTSUNNY   62  57  83 NW3       29.88R
KALAMAZOO      SUNNY     67  58  72 NW8       29.89R
LUDINGTON      CLOUDY    59  53  80 NW6       29.91R
MARSHALL       CLOUDY    62  59  88 W9        29.89R
MOUNT PLEASANT MOSUNNY   59  52  78 W8        29.88R
MUSKEGON       PTSUNNY   64  49  57 NW6       29.91R
SOUTH HAVEN    MOSUNNY   66  62  85 W8        29.90R
$$
MIZ016>042-091400-
NORTHERN LOWER MICHIGAN

CITY           SKY/WX    TMP DP  RH WIND       PRES   REMARKS
ALPENA         PTSUNNY   57  51  80 W6        29.84R
BEAVER ISLAND  PTSUNNY   56  53  91 W6        29.87R
BELLAIRE       PTSUNNY   59  51  74 CALM      29.87S
CHARLEVOIX     PTSUNNY   58  53  84 W10       29.90R
FRANKFORT      CLOUDY    57  53  85 W6        29.89S
GAYLORD        MOSUNNY   53  49  86 W7        29.87R
GRAYLING       PTSUNNY   57  51  80 W8        29.87S
HARBOR SPRINGS CLOUDY    57  53  86 SW3       29.85S
HOUGHTON LAKE  PTSUNNY   56  51  84 NW9       29.88R
MANISTEE       PTSUNNY   57  52  82 NW7       29.90S
OSCODA         MOSUNNY   60  49  67 NW8       29.84S
PELLSTON       CLOUDY    57  52  83 W8        29.86R
ROGERS CITY    CLOUDY    56  53  87 NW10      29.85R
TRAVERSE CITY  PTSUNNY   58  52  80 VRB3      29.88R
$$
MIZ007>008-015-091400-
EASTERN UPPER MICHIGAN

CITY           SKY/WX    TMP DP  RH WIND       PRES   REMARKS
KINROSS        CLOUDY    50  50 100 W6        29.84R
MACKINAC ISLAN CLOUDY    54  49  82 W9        29.85R
NEWBERRY       CLOUDY    51  48  91 W3        29.84R
S. S. MARIE    LGT RAIN  50  46  86 W6        29.82S
$$
MIZ004>006-011>014-085-091400-
CENTRAL UPPER MICHIGAN

CITY           SKY/WX    TMP DP  RH WIND       PRES   REMARKS
MANISTIQUE     CLOUDY    55  51  86 NW6       29.85S
ESCANABA       CLOUDY    54  48  82 W6        29.87S
MENOMINEE      MOSUNNY   57  52  82 W6        29.88S
SAWYER-GWINN   CLOUDY    52  50  93 CALM      29.87R
$$
MIZ001>003-009>011-084-091400-
WESTERN UPPER MICHIGAN

CITY           SKY/WX    TMP DP  RH WIND       PRES   REMARKS
IRON MOUNTAIN  CLOUDY    54  50  86 W5        29.88R
HOUGHTON       CLOUDY    52  49  89 NW12      29.88R
COPPER HARBOR    N/A     55  49  80 N12       29.86R
$$

ABBREVIATIONS USED IN REMARKS
   TC - TEMPERATURE IN CELSIUS
  WCI - WIND CHILL INDEX
   HX - HEAT INDEX
  VSB - VISIBILITY



USA.gov is the U.S. government's official web portal to all federal, state and local government web resources and services.